Regional Weather Roundup
Issued by NWS

Home | Current Version | Previous Version | Graphics & Text | Print | Product List | Glossary On
Versions: 1 2 3 4 5 6 7 8 9 10 11 12 13 14 15 16 17 18 19 20 21 22 23 24 25 26 27 28 29 30 31 32 33 34 35 36 37 38 39 40 41 42 43 44 45 46 47 48 49 50
000
ASUS43 KMPX 291201
RWRMN
WEATHER ROUNDUP FOR MINNESOTA
NATIONAL WEATHER SERVICE TWIN CITIES/CHANHASSEN MN
700 AM CDT SUN MAY 29 2016


NOTE: "FAIR" INDICATES FEW OR NO CLOUDS BELOW 12,000 FEET WITH NO
SIGNIFICANT WEATHER AND/OR OBSTRUCTIONS TO VISIBILITY. N/A MEANS
CURRENT SKY AND/OR WEATHER CONDITIONS ARE NOT AVAILABLE.

MNZ060>063-068>070-291300-
   Twin Cities Metro

CITY           SKY/WX    TMP DP  RH WIND       PRES   REMARKS
TWIN CITIES    CLOUDY    63  58  83 W12       29.88R
6HR MIN TEMP:  62; 6HR MAX TEMP:  63;

ST PAUL        CLOUDY    63  59  87 W9        29.88R
CRYSTAL        CLOUDY    62  58  86 W10       29.86S
BLAINE         LGT RAIN  63  63 100 W7        29.87R
EDEN PRAIRIE   LGT RAIN  63  58  83 W7        29.88R
6HR MIN TEMP:  62; 6HR MAX TEMP:  63; 6HR PCP:  0.01;

SOUTH ST PAUL  CLOUDY    63  60  91 W8        29.88R
LAKE ELMO      CLOUDY    63  61  94 W9        29.88R
$$
MNZ001>005-007-008-013>017-022>024-027-028-291300-
   Northwest Minnesota

CITY           SKY/WX    TMP DP  RH WIND       PRES   REMARKS
BEMIDJI        CLOUDY    55  54  97 W9        29.87R
HALLOCK        CLOUDY    57  55  94 NW6       29.90R
ROSEAU         CLOUDY    55  50  82 NW7       29.88R
WARROAD        DRIZZLE   54  50  87 NW5       29.87R
THIEF RVR FALL CLOUDY    57  54  88 NW9       29.90S
CROOKSTON      CLOUDY    59  57  94 NW7       29.91R
FOSSTON        CLOUDY    55  54  94 W5        29.90R
DETROIT LAKES  CLOUDY    57  55  94 NW9       29.92R
MOORHEAD       SUNNY     57  55  94 W3        29.92R
PARK RAPIDS    CLOUDY    58  55  90 NW10      29.88R
MAHNOMEN       CLOUDY    56  56  98 NW5       29.89S
$$
MNZ006-009>011-018-025>026-291300-
   North Central Minnesota

CITY           SKY/WX    TMP DP  RH WIND       PRES   REMARKS
BAUDETTE       LGT RAIN  55  53  93 NW12      29.83S
FLAG ISLAND    DRIZZLE   54  52  94 N12       29.84R
INTL FALLS     CLOUDY    55  54  96 NW8       29.79S
6HR MIN TEMP:  55; 6HR MAX TEMP:  57; 6HR PCP:  0.05;

WASKISH        CLOUDY    55  55 100 W10       29.84S
BIG FORK       LGT RAIN  55  55 100 W6        29.82S
LONGVILLE      DRIZZLE   57  55  94 W6        29.85R
GRAND RAPIDS   CLOUDY    57  55  93 W13       29.84R
CRANE LAKE     DRIZZLE   57  57 100 CALM      29.79R
ORR            DRIZZLE   55  54  94 W6        29.77R
COOK           DRIZZLE   57  57 100 W7        29.79R
WALKER         CLOUDY    55  54  94 W9        29.87R
$$
MNZ012-019>021-037-291300-
   Northeast Minnesota

CITY           SKY/WX    TMP DP  RH WIND       PRES   REMARKS
DULUTH         FOG       58  57  97 W8        29.80R VSB 1
6HR MIN TEMP:  55; 6HR MAX TEMP:  58; 6HR PCP:  0.06;

ELY            DRIZZLE   57  57 100 CALM      29.78S
HIBBING        LGT RAIN  57  57 100 W7        29.80R
EVELETH        RAIN      59  57  94 W6        29.80R
DULUTH HARBOR  CLOUDY    55  54  94 SW7       29.80S
TWO HARBORS    CLOUDY    55  52  88 CALM      29.77S HAZE
SILVER BAY     CLOUDY    55  55 100 CALM      29.76S
GRAND MARAIS     N/A     46  44  93 CALM      29.77R
G MARAIS ARPRT DRZL/FOG  55  54  94 CALM      29.78S VSB 1/4
$$
MNZ029>031-032-039>041-046>048-054>057-064-291300-
   West Central Minnesota

CITY           SKY/WX    TMP DP  RH WIND       PRES   REMARKS
FERGUS FALLS   PTSUNNY   57  57 100 N6        29.89R FOG
WHEATON        SUNNY     59  57  94 W6        29.95R FOG
MORRIS         SUNNY     55  54  94 NW5       29.92R FOG
ALEXANDRIA     CLOUDY    59  56  89 NW12      29.92R
ELBOW LAKE     CLOUDY    56  56 100 NW3       29.92R FOG
WADENA         CLOUDY    57  55  94 NW6       29.89S
GLENWOOD       CLOUDY    57  57 100 NW9       29.92R
APPLETON       CLOUDY    61  55  82 W7        29.92R
ORTONVILLE     SUNNY     59  55  88 W8        29.93R
MADISON        MOSUNNY   59  55  88 W6        29.94R
WILLMAR        FAIR      59  57  94 W7        29.94R FOG
$$
MNZ033>034-036-042>043-049>051-058-059-291300-
   Central Minnesota

CITY           SKY/WX    TMP DP  RH WIND       PRES   REMARKS
ST CLOUD       CLOUDY    60  59  96 W10       29.87R
6HR MIN TEMP:  59; 6HR MAX TEMP:  61; 6HR PCP:  0.06;

SAUK CENTRE    CLOUDY    58  57  94 W7        29.90R
PAYNESVILLE    CLOUDY    59  59 100 W8        29.91R FOG
AITKIN         CLOUDY    61  55  82 W3        29.83R HAZE
PINE RIVER     DRIZZLE   57  57 100 W5        29.89S
BRAINERD       LGT RAIN  59  58  96 W8        29.86R
STAPLES        CLOUDY    57  57 100 NW9       29.88S
LONG PRAIRIE   CLOUDY    59  55  88 W8        29.90R
LITTLE FALLS   CLOUDY    59  55  88 W7        29.88R
LITCHFIELD     MOSUNNY   61  61 100 W7        29.92R
BUFFALO        CLOUDY    61  58  89 W8        29.90R
MAPLE LAKE     CLOUDY    62  60  94 W7        29.89S
HUTCHINSON     MOSUNNY   60  59  97 W9        29.93R FOG
$$
MNZ037-044-045-052-053-291300-
   East Central Minnesota

CITY           SKY/WX    TMP DP  RH WIND       PRES   REMARKS
PRINCETON        N/A     63  61  94 W6        29.87R
MORA           CLOUDY    57  55  94 W6        29.86R
CAMBRIDGE      CLOUDY    63  54  72 W6        29.85R
RUSH CITY      CLOUDY    60  58  91 W7        29.85R
MOOSE LAKE     CLOUDY    59  57  94 W6        29.81R
HINCKLEY       CLOUDY    59  59 100 W6        29.84R
CLOQUET        CLOUDY    59  57  94 W6        29.80S FOG
MCGREGOR       CLOUDY    59  57  94 W6        29.83S
$$
MNZ071>073-080-081-089-090-097-098-291300-
   Southwest Minnesota

CITY           SKY/WX    TMP DP  RH WIND       PRES   REMARKS
MONTEVIDEO     CLOUDY    61  61 100 NW5       29.95R
GRANITE FALLS  MOSUNNY   59  57  93 SW7       29.95R
CANBY          MOSUNNY   63  58  85 NW8       29.97R
MARSHALL       MOSUNNY   61  58  90 W10       29.96R
REDWOOD FALLS  SUNNY     60  55  83 W8        29.93R
OLIVIA         SUNNY     55  54  94 W5        29.92S
PIPESTONE      SUNNY     57  57 100 W5        29.99R FOG
WINDOM         SUNNY     59  55  88 CALM      29.98R
WORTHINGTON    SUNNY     58  57  97 SW13      30.00R
JACKSON        MOSUNNY   59  55  88 W9        29.99R
TRACY          SUNNY     61  58  90 W6        29.97R
SLAYTON        MOSUNNY   59  58  98 W8        29.99S
$$
MNZ065>067-074>077-082>085-091>093-291300-
   South Central Minnesota

CITY           SKY/WX    TMP DP  RH WIND       PRES   REMARKS
MANKATO        CLOUDY    61  55  82 W7        29.93S
NEW ULM        SUNNY     59  57  94 W9        29.94R
ST JAMES       SUNNY     55  52  88 W9        29.97R
FAIRMONT       SUNNY     61  52  72 W12       29.96R
GLENCOE        CLOUDY    61  60  96 W6        29.91R
FARIBAULT      PTSUNNY   63  59  88 W9        29.92R
OWATONNA       RAIN      61  57  88 W10       29.93R
WASECA         PTSUNNY   59  55  88 W7        29.95R
ALBERT LEA     MOSUNNY   61  59  94 W6        29.95R
$$
MNZ078>079-086>088-094>096-291300-
   Southeast Minnesota

CITY           SKY/WX    TMP DP  RH WIND       PRES   REMARKS
ROCHESTER      CLOUDY    61  59  93 W14       29.93R
6HR MIN TEMP:  60; 6HR MAX TEMP:  62; 6HR PCP: TRACE;

RED WING       CLOUDY    63  61  94 W6        29.87R
STANTON        CLOUDY    63  59  87 W12       29.89R
DODGE CENTER   PTSUNNY   61  59  94 W12       29.93R FOG
WINONA         CLOUDY    63  59  88 W7        29.90R
AUSTIN         MOSUNNY   59  57  94 W7        29.94R
PRESTON        PTSUNNY   60  57  88 W13       29.94R
$$
ABBREVIATIONS USED IN REMARKS
   TC - TEMPERATURES IN CELSIUS
  WCI - WIND CHILL INDEX
   HX - HEAT INDEX
  VSB - VISIBILITY
$$



USA.gov is the U.S. government's official web portal to all federal, state and local government web resources and services.